Date String (YYYY-MM-DD hh:mm:ss) UTC,Instrument flags,absolute air pressure of the measurement (hPa),sample flow rate (lpm),inlet stack bypass flow (lpm),air temperature of the measurement (°C),ambient temperature measured by the external sensor (°C),aerosol sample conditioner tube jacket temperature (°C),OPC LED temperature (°C),internal box temperature (°C),relative humidity of the measurement (%),span deviation,mass concentration of particles derived from Lorenz-Mie calculation of OPC scattering (μg/m³),mass concentration of particles derived from Lorenz-Mie calculation of OPC scattering (μg/m³),mass concentration of particles derived from Lorenz-Mie calculation of OPC scattering (μg/m³)
DateTimeUTC,F1_M11,P_M11,Q1_M11,Q2_M11,T1_M11,T2_M11,T3_M11,T4_M11,T5_M11,U1_M11,ZSPAN_M11,X0_M11,X2_M11,X1_M11
2024-01-24 19:00:00,SystemResetWarning,0826.6,5.01,000.00,022.1,021.4,000.0,030.5,023.3,16.0,0000.0,0007.42,0004.19,0003.98
2024-01-24 19:01:00,SystemResetWarning,0826.6,5.01,000.00,022.1,021.4,000.0,030.5,023.4,16.1,0000.0,0007.46,0004.21,0004.01
2024-01-24 19:02:00,SystemResetWarning,0826.6,5.01,000.00,022.1,021.4,000.0,030.5,023.4,16.1,0000.6,0007.48,0004.23,0004.03
2024-01-24 19:03:00,SystemResetWarning,0826.6,5.00,000.00,022.1,021.4,000.0,030.5,023.3,15.9,0001.5,0007.50,0004.25,0004.05
2024-01-24 19:04:00,SystemResetWarning,0826.6,5.00,000.00,022.1,021.4,000.0,030.5,023.3,16.0,0002.3,0007.49,0004.26,0004.07
2024-01-24 19:05:00,SystemResetWarning,0826.6,5.00,000.00,022.1,021.4,000.0,030.5,023.3,15.8,0000.7,0007.53,0004.30,0004.10
2024-01-24 19:06:00,SystemResetWarning,0826.6,5.00,000.00,022.1,021.4,000.0,030.5,023.3,15.7,0000.0,0007.58,0004.32,0004.11
2024-01-24 19:07:00,SystemResetWarning,0826.6,5.00,000.00,022.1,021.4,000.0,030.5,023.3,15.9,0000.0,0007.46,0004.34,0004.12
2024-01-24 19:08:00,SystemResetWarning,0826.6,4.99,000.00,022.1,021.4,000.0,030.5,023.4,16.0,0000.0,0006.82,0004.37,0004.14
2024-01-24 19:09:00,SystemResetWarning,0826.6,5.00,000.00,022.1,021.4,000.0,030.5,023.4,15.9,0000.0,0006.94,0004.40,0004.17
2024-01-24 19:10:00,SystemResetWarning,0826.6,5.00,000.00,022.1,021.4,000.0,030.5,023.4,15.8,0000.0,0006.99,0004.41,0004.19
2024-01-24 19:11:00,SystemResetWarning,0826.6,5.01,000.00,022.1,021.4,000.0,030.5,023.3,15.8,0000.0,0007.03,0004.41,0004.18
2024-01-24 19:12:00,SystemResetWarning,0826.5,5.01,000.00,022.1,021.4,000.0,030.5,023.3,15.9,0000.0,0007.07,0004.40,0004.18
2024-01-24 19:13:00,SystemResetWarning,0826.5,5.01,000.00,022.1,021.4,000.0,030.5,023.3,16.0,0000.0,0007.09,0004.39,0004.18
2024-01-24 19:14:00,SystemResetWarning,0826.4,5.00,000.00,022.1,021.5,000.0,030.5,023.3,16.0,0000.0,0007.01,0004.37,0004.16
2024-01-24 19:15:00,SystemResetWarning,0826.4,4.99,000.00,022.1,021.4,000.0,030.5,023.3,16.2,0000.0,0006.99,0004.34,0004.14
2024-01-24 19:16:00,SystemResetWarning,0826.4,5.00,000.00,022.1,021.5,000.0,030.5,023.3,16.2,0000.0,0007.05,0004.33,0004.12
2024-01-24 19:17:00,SystemResetWarning,0826.4,5.00,000.00,022.1,021.5,000.0,030.5,023.3,16.4,0000.0,0007.02,0004.30,0004.09
2024-01-24 19:18:00,SystemResetWarning,0826.4,5.00,000.00,022.1,021.4,000.0,030.5,023.3,16.3,0000.0,0006.97,0004.32,0004.09
2024-01-24 19:19:00,SystemResetWarning,0826.4,5.00,000.00,022.1,021.4,000.0,030.5,023.4,16.4,0000.0,0006.77,0004.33,0004.09
2024-01-24 19:20:00,SystemResetWarning,0826.4,5.00,000.00,022.1,021.4,000.0,030.5,023.4,16.5,0000.0,0006.97,0004.35,0004.11
2024-01-24 19:21:00,SystemResetWarning,0826.4,4.99,000.00,022.1,021.5,000.0,030.5,023.4,16.4,0000.0,0007.32,0004.41,0004.15
2024-01-24 19:22:00,SystemResetWarning,0826.4,5.00,000.00,022.1,021.5,000.0,030.5,023.4,16.4,0000.0,0007.80,0004.52,0004.21
2024-01-24 19:23:00,SystemResetWarning,0826.4,5.00,000.00,022.1,021.5,000.0,030.5,023.4,16.5,0000.0,0007.85,0004.58,0004.28
2024-01-24 19:24:00,SystemResetWarning,0826.4,5.01,000.00,022.1,021.5,000.0,030.5,023.4,16.7,0000.1,0008.34,0004.67,0004.35
2024-01-24 19:25:00,SystemResetWarning,0826.3,5.01,000.00,022.1,021.5,000.0,030.5,023.4,16.5,0002.1,0009.14,0004.80,0004.44
2024-01-24 19:26:00,SystemResetWarning,0826.3,5.00,000.00,022.1,021.5,000.0,030.5,023.4,16.7,0002.1,0009.48,0004.95,0004.53
2024-01-24 19:27:00,SystemResetWarning,0826.3,5.00,000.00,022.1,021.5,000.0,030.5,023.4,16.8,0002.2,0009.91,0005.04,0004.60
2024-01-24 19:28:00,SystemResetWarning,0826.3,4.99,000.00,022.1,021.5,000.0,030.5,023.4,16.6,0002.3,0010.44,0005.10,0004.66
2024-01-24 19:29:00,SystemResetWarning,0826.2,4.99,000.00,022.1,021.5,000.0,030.5,023.4,16.4,0002.4,0010.45,0005.08,0004.66
2024-01-24 19:30:00,SystemResetWarning,0826.2,5.00,000.00,022.1,021.5,000.0,030.5,023.3,16.5,0002.2,0010.44,0005.07,0004.64
2024-01-24 19:31:00,SystemResetWarning,0826.2,5.00,000.00,022.1,021.5,000.0,030.5,023.3,16.4,0002.1,0010.33,0005.06,0004.62
2024-01-24 19:32:00,SystemResetWarning,0826.2,5.00,000.00,022.1,021.5,000.0,030.5,023.3,16.5,0002.4,0010.32,0005.01,0004.59
2024-01-24 19:33:00,SystemResetWarning,0826.2,4.99,000.00,022.1,021.4,000.0,030.5,023.3,16.5,0003.0,0010.03,0004.90,0004.54
2024-01-24 19:34:00,SystemResetWarning,0826.2,5.00,000.00,022.1,021.5,000.0,030.5,023.3,16.5,0003.4,0010.45,0004.85,0004.50
2024-01-24 19:35:00,SystemResetWarning,0826.2,5.01,000.00,022.1,021.5,000.0,030.5,023.4,16.5,0004.1,0011.16,0004.79,0004.45
2024-01-24 19:36:00,SystemResetWarning,0826.2,5.00,000.00,022.1,021.5,000.0,030.5,023.4,16.5,0003.2,0010.46,0004.71,0004.40
2024-01-24 19:37:00,SystemResetWarning,0826.2,5.01,000.00,022.1,021.5,000.0,030.5,023.4,16.5,0000.0,0010.12,0004.61,0004.35
2024-01-24 19:38:00,SystemResetWarning,0826.2,5.01,000.00,022.1,021.5,000.0,030.5,023.4,16.6,0000.0,0009.79,0004.58,0004.34
2024-01-24 19:39:00,SystemResetWarning,0826.2,5.00,000.00,022.1,021.5,000.0,030.5,023.4,16.4,0000.0,0009.23,0004.59,0004.36
2024-01-24 19:40:00,SystemResetWarning,0826.2,5.00,000.00,022.1,021.5,000.0,030.5,023.4,16.5,0000.0,0009.39,0004.68,0004.44
2024-01-24 19:41:00,SystemResetWarning,0826.1,5.00,000.00,022.1,021.5,000.0,030.5,023.3,16.5,0000.0,0009.48,0004.76,0004.52
2024-01-24 19:42:00,SystemResetWarning,0826.2,4.99,000.00,022.1,021.5,000.0,030.5,023.3,16.6,0000.0,0009.49,0004.81,0004.58
2024-01-24 19:43:00,SystemResetWarning,0826.2,5.00,000.00,022.1,021.5,000.0,030.5,023.4,16.5,0000.0,0009.45,0004.87,0004.63
2024-01-24 19:44:00,SystemResetWarning,0826.2,5.00,000.00,022.1,021.5,000.0,030.5,023.4,16.5,0000.0,0009.71,0004.93,0004.68
2024-01-24 19:45:00,SystemResetWarning,0826.1,5.00,000.00,022.1,021.5,000.0,030.5,023.4,16.5,0000.0,0009.58,0004.98,0004.72
2024-01-24 19:46:00,SystemResetWarning,0826.2,5.00,000.00,022.1,021.5,000.0,030.5,023.4,16.5,0000.0,0008.49,0005.06,0004.78
2024-01-24 19:47:00,SystemResetWarning,0826.1,5.01,000.00,022.1,021.5,000.0,030.5,023.4,16.5,0002.0,0008.50,0005.15,0004.83
2024-01-24 19:48:00,SystemResetWarning,0826.1,5.01,000.00,022.1,021.5,000.0,030.5,023.4,16.6,0003.8,0008.94,0005.26,0004.89
2024-01-24 19:49:00,SystemResetWarning,0826.1,5.01,000.00,022.1,021.5,000.0,030.5,023.4,16.7,0003.6,0009.06,0005.29,0004.94
2024-01-24 19:50:00,SystemResetWarning,0826.0,5.00,000.00,022.1,021.5,000.0,030.5,023.4,16.5,0003.5,0009.16,0005.32,0004.96
2024-01-24 19:51:00,SystemResetWarning,0826.1,4.99,000.00,022.1,021.5,000.0,030.5,023.4,16.4,0003.5,0009.12,0005.32,0004.98
2024-01-24 19:52:00,SystemResetWarning,0826.2,4.99,000.00,022.2,021.5,000.0,030.5,023.5,16.6,0003.5,0009.39,0005.34,0004.99
2024-01-24 19:53:00,SystemResetWarning,0826.2,5.00,000.00,022.2,021.5,000.0,030.5,023.5,16.8,0003.7,0009.34,0005.35,0005.02
2024-01-24 19:54:00,SystemResetWarning,0826.2,4.99,000.00,022.2,021.5,000.0,030.5,023.5,16.6,0003.7,0009.39,0005.40,0005.05
2024-01-24 19:55:00,SystemResetWarning,0826.2,5.00,000.00,022.2,021.6,000.0,030.5,023.5,16.7,0003.4,0009.35,0005.45,0005.09
2024-01-24 19:56:00,SystemResetWarning,0826.1,5.00,000.00,022.2,021.6,000.0,030.5,023.5,16.7,0003.7,0009.62,0005.49,0005.11
2024-01-24 19:57:00,SystemResetWarning,0826.1,5.00,000.00,022.2,021.5,000.0,030.5,023.5,16.6,0003.8,0009.73,0005.47,0005.11
2024-01-24 19:58:00,SystemResetWarning,0826.1,5.01,000.00,022.2,021.5,000.0,030.5,023.5,16.5,0003.9,0009.67,0005.44,0005.10
2024-01-24 19:59:00,SystemResetWarning,0826.1,5.01,000.00,022.2,021.5,000.0,030.5,023.5,16.3,0004.0,0009.36,0005.40,0005.07
